Cloud_Cover
100 100 100 100 29 5 5 5 5 5 5 5 30 5 5 5 4 5 22 14 56 41 15 44 11 22 5 5 5 3 2 0 0 0 0 0 0 0 0 0 0 0 0
100 100 100 100 89 88 13 51 5 5 5 5 5 5 5 5 13 100 100 100 93 100 87 74 84 71 5 5 5 9 0 0 0 0 0 7 49 0 0 0 0 0 0
92 42 68 100 67 100 100 100 26 54 57 97 24 5 5 5 16 100 98 99 41 53 1 33 5 5 4 0 0 0 0 0 6 2 4 23 44 0 0 0 0 0 0
90 86 100 100 42 47 93 100 73 96 100 100 21 23 5 84 93 80 48 100 5 8 4 2 2 0 0 3 0 2 3 42 91 4 0 80 0 0 0 0 0 0 0
26 90 95 82 40 100 99 100 100 100 100 100 94 100 100 100 100 78 55 5 13 5 5 4 5 8 45 6 5 13 100 100 40 3 0 0 1 0 0 0 0 0 0
94 42 95 100 100 100 100 100 100 100 100 100 100 100 100 100 100 100 100 100 100 99 49 50 79 11 31 46 99 100 94 41 4 5 5 5 0 0 0 0 0 0 0
51 94 100 100 100 100 100 100 100 100 100 100 100 100 100 100 100 100 100 100 86 100 92 79 100 86 98 100 100 100 65 5 4 3 1 5 0 0 0 0 0 0 0
91 100 100 100 100 100 100 100 100 100 100 100 100 100 100 100 100 100 100 97 100 100 100 95 82 100 100 100 100 100 37 5 5 6 3 0 0 0 0 0 0 0 0
100 100 100 100 100 100 100 100 100 100 100 100 100 100 100 100 100 100 100 100 100 100 100 100 100 100 100 43 91 56 5 5 5 6 5 0 0 0 0 0 0 0 0
100 100 100 100 100 100 100 100 100 100 100 100 100 100 100 100 100 100 100 100 100 100 100 99 100 100 100 10 98 5 28 12 4 0 0 0 0 0 0 0 0 0 0
100 100 100 100 100 100 100 100 100 100 100 100 100 100 100 100 100 100 100 100 100 100 100 92 52 100 6 59 10 2 5 5 0 0 0 0 0 0 38 2 0 0 0
100 100 100 100 100 100 100 100 100 100 100 100 100 100 100 100 100 100 100 100 100 71 100 100 100 91 5 5 5 0 5 3 0 0 1 1 0 0 1 0 0 0 0
100 100 100 100 100 100 100 100 100 100 100 100 100 100 100 100 100 100 100 100 54 78 95 100 42 100 97 26 5 2 4 5 5 4 93 100 46 4 0 0 0 0 0
100 100 100 100 100 100 100 100 100 100 100 100 100 100 100 100 100 100 99 77 100 100 96 82 7 8 21 36 35 89 100 100 73 100 75 92 6 0 0 0 0 0 0
100 100 100 100 100 100 100 100 100 100 100 100 100 100 100 100 100 96 66 65 98 90 85 75 74 100 100 71 10 100 100 100 100 99 2 5 2 0 0 0 0 0 0
100 99 97 100 100 100 100 100 100 100 100 100 100 100 100 99 100 95 100 100 100 100 67 99 100 100 100 100 100 100 89 40 66 4 5 5 0 4 5 4 2 0 0
40 100 100 99 100 100 100 100 100 100 100 100 100 100 100 100 100 100 95 100 100 98 92 67 100 100 100 98 96 99 41 11 3 0 0 2 3 23 100 5 4 4 0
51 100 100 100 100 86 93 100 100 100 100 100 100 100 95 57 62 100 85 78 68 42 100 100 100 97 96 95 84 3 0 0 0 0 2 5 5 7 37 79 50 5 5
100 83 92 100 100 87 74 86 100 58 98 92 73 100 100 57 7 32 88 76 55 34 6 0 0 0 0 0 0 0 0 0 0 0 0 1 0 3 42 99 100 100 42
100 100 100 100 98 100 100 85 49 68 90 67 35 8 5 5 5 4 1 0 0 0 0 0 0 0 0 0 0 0 0 0 0 0 0 8 46 100 95 76 48 10 98
100 80 47 60 88 46 5 5 35 5 5 5 5 4 2 0 0 0 0 0 0 0 0 5 0 0 0 0 0 0 0 0 0 0 0 1 1 73 96 100 100 46 76
5 6 64 69 15 17 6 77 5 5 2 0 0 0 0 0 0 0 0 0 3 5 5 1 0 0 0 0 0 0 0 0 0 1 3 4 5 95 100 100 96 68 92
69 11 22 6 6 5 75 4 10 6 0 0 0 0 0 0 0 3 4 0 5 2 0 0 0 0 1 1 0 4 0 4 5 1 1 2 5 17 39 6 96 100 70
70 55 5 5 59 63 7 0 0 0 0 0 26 0 4 5 35 49 4 1 0 0 4 0 0 0 0 2 4 4 5 9 5 5 0 0 1 5 4 2 4 14 6
71 92 82 39 3 3 0 0 0 0 0 0 0 5 5 100 95 15 4 2 0 0 0 0 1 5 8 5 5 5 7 18 5 4 5 0 0 0 0 93 83 5 1
11 4 0 0 3 0 1 0 0 0 1 4 7 14 19 89 79 96 15 3 5 5 5 0 5 5 5 5 5 6 51 43 45 4 5 3 0 0 0 12 27 5 3